www.pogodaiklimat.ru

Погода и климат >> Архив погоды >> Коморские Острова >> Dzaoudzi


ПОГОДА в Dzaoudzi

  • Прогноз погоды в Dzaoudzi
  • Монитор погоды в Dzaoudzi
  • Климат города

АРХИВ ПОГОДЫ в Dzaoudzi

Время (UTC), дата Ветер
(напр.,м/с)
 
Видим.   Явления Облачность Т
(С)
Тd
(С)
f
(%)
Тe
(С)
Тes
(С)
Комфортность P
(гПа)
Po
(гПа)
Тmin
(С)
Tmax
(С)
R
(мм)
R24
(мм)
S
(см)
00 18.05 ЮЗ 3
{5}
20 км н/о +24.9 +23.3 91 +33 +33 очень
душно
1012.6 1013.0
03 18.05 ЮЗ 4
{6}
20 км 3/3 600 м
[Cu Sc]
+26.1 +23.8 87 +36 +36 очень
душно
1012.7 1013.0
06 18.05 Ю 6
{8}
20 км 4/4 720 м
[Cu Sc Ci fib]
+28.7 +23.6 74 +39 +41 очень
душно
1013.5 1014.0 +24.7
09 18.05 ЮВ 5
{8}
20 км 4/4 700 м
[Cu med, cong Ci fib]
+31.5 +24.4 66 +44 +49 опасность
перегрева
1012.2 1012.0
12 18.05 ЮВ 7
{11}
20 км 4/4 660 м
[Cu med, cong]
+30.5 +23.7 67 +42 +43 опасность
перегрева
1010.8 1011.0
15 18.05 ЮВ 5
{8}
20 км 3/1 660 м
[Cu Sc Ci fib]
+27.5 +21.8 71 +35 +35 очень
душно
1011.7 1012.0
18 18.05 Ю 5
{7}
20 км н/о +26.7 +21.7 74 +34 +34 очень
душно
1013.3 1013.0 +32.0
21 18.05 Ю 4
{7}
20 км н/о +26.4 +23.1 82 +35 +35 очень
душно
1012.9 1013.0
00 19.05 ЮЗ 5
{7}
20 км н/о +26.1 +24.0 88 +36 +36 очень
душно
1012.1 1012.0
03 19.05 Ю 6
{10}
20 км в посл. час ливневой дождь 6/6 660 м
[Cu Sc]
+27.2 +23.0 78 +36 +36 очень
душно
1012.4 1012.0 0.0
06 19.05 Ю 6
{9}
20 км {ливн. осадки} 5/5 660 м
[Cu Sc]
+29.7 +23.9 71 +41 +42 опасность
перегрева
1013.6 1014.0 +25.8 0.0
09 19.05 Ю 7
{10}
20 км 4/4 700 м
[Cu med, cong]
+30.7 +23.6 66 +42 +45 опасность
перегрева
1012.1 1012.0
12 19.05 Ю 5
{9}
20 км 1/1 700 м
[Cu hum]
+30.1 +22.5 64 +39 +43 очень
душно
1011.1 1011.0
15 19.05 Ю 6
{8}
20 км 1/1 700 м
[Cu hum]
+27.1 +22.3 75 +35 +35 очень
душно
1011.9 1012.0
18 19.05 ЮВ 4
{8}
20 км н/о +26.4 +22.0 77 +34 +34 очень
душно
1013.4 1013.0 +31.3
21 19.05 Ю 3
{5}
20 км н/о +26.0 +22.3 80 +34 +34 очень
душно
1013.7 1014.0
00 20.05 Ю 6
{8}
20 км н/о +26.7 +23.0 80 +36 +36 очень
душно
1012.8 1013.0
03 20.05 Ю 6
{7}
9000 м осадки на расстоянии 4/4 600 м
[Cu Sc]
+26.7 +23.0 80 +36 +36 очень
душно
1012.8 1013.0
06 20.05 ЮВ 3
{5}
20 км 1/1 660 м
[Cu Sc]
+29.8 +23.7 70 +41 +46 опасность
перегрева
1014.3 1014.0 +25.9
09 20.05 Ю 4
{6}
20 км 5/5 660 м
[Cu med, cong]
+30.7 +22.8 63 +41 +46 опасность
перегрева
1012.8 1013.0
12 20.05 Ю 3
{5}
20 км 3/3 660 м
[Cu med, cong]
+30.1 +23.5 68 +41 +45 опасность
перегрева
1011.4 1011.0
15 20.05 ЮВ 3
{4}
20 км 3/3 630 м
[Cu med, cong]
+27.2 +23.0 78 +36 +36 очень
душно
1012.2 1012.0
18 20.05 СВ 2
{3}
19 км н/о +25.6 +23.1 86 +34 +34 очень
душно
1013.6 1014.0 +31.2
21 20.05 С 2
{3}
20 км н/о +24.9 +22.4 86 +33 +33 очень
душно
1013.5 1014.0
00 21.05 ЮЗ 3
{5}
20 км н/о +25.1 +23.9 93 +34 +34 очень
душно
1012.8 1013.0
03 21.05 Ю 5
{8}
20 км 1/1 630 м
[Cu hum]
+26.2 +21.8 77 +34 +34 очень
душно
1013.3 1013.0
06 21.05 ЮВ 6
{9}
20 км 4/4 840 м
[Cu med, cong]
+29.4 +22.1 65 +38 +40 очень
душно
1014.6 1015.0 +23.6
09 21.05 ЮВ 7
{10}
20 км 1/1 870 м
[Cu med, cong]
+30.3 +21.4 59 +38 +43 очень
душно
1013.1 1013.0
12 21.05 ЮВ 6
{9}
20 км 1/1 870 м
[Cu hum]
+30.7 +21.2 57 +38 +41 очень
душно
1011.6 1012.0
15 21.05 ЮВ 5
{8}
20 км 4/4 900 м
[Cu med, cong]
+26.7 +21.0 71 +34 +34 очень
душно
1012.6 1013.0
18 21.05 ЮВ 4
{8}
20 км н/о +26.3 +20.4 70 +33 +33 очень
душно
1014.4 1014.0 +31.0
21 21.05 ЮВ 3
{5}
20 км н/о +26.1 +21.1 74 +33 +33 очень
душно
1014.3 1014.0
00 22.05 Ю 3
{5}
20 км н/о +25.6 +22.1 81 +33 +33 очень
душно
1013.6 1014.0
03 22.05 Ю 2
{4}
20 км 4/1 660 м
[Cu Sc Ac trans]
+24.4 +20.1 77 +30 +30 очень
душно
1014.3 1014.0
06 22.05 ЮВ 5
{9}
20 км 4/1 840 м
[Cu Sc Ac trans]
+30.0 +21.9 62 +39 +41 очень
душно
1015.4 1015.0 +24.4
09 22.05 Ю 6
{8}
20 км 3/3 900 м
[Cu med, cong]
+30.9 +22.2 60 +40 +45 очень
душно
1014.3 1014.0
12 22.05 Ю 6
{8}
20 км 3/3 800 м
[Cu hum]
+30.5 +22.7 63 +40 +42 очень
душно
1013.3 1013.0
15 22.05 ЮВ 5
{8}
20 км 3/3 720 м
[Cu med, cong Ac trans]
+27.3 +22.7 76 +36 +36 очень
душно
1014.6 1015.0
18 22.05 ЮВ 5
{8}
20 км 8/8 600 м
[]
+26.8 +22.4 77 +35 +35 очень
душно
1016.2 1016.0 +31.4
21 22.05 Ю 4
{6}
20 км н/о +26.3 +22.8 81 +35 +35 очень
душно
1015.7 1016.0
00 23.05 Ю 4
{6}
20 км 8/8 600 м
[]
+26.7 +23.2 81 +36 +36 очень
душно
1014.7 1015.0
03 23.05 ЮВ 5
{8}
20 км 9/4 900 м
[Cu Sc Ac trans]
+27.4 +23.0 77 +37 +37 очень
душно
1015.6 1016.0
06 23.05 ЮВ 7 20 км 9/4 800 м
[Cu Sc]
+28.8 +22.8 70 +38 +39 очень
душно
1016.9 1017.0 +26.2
09 23.05 ЮВ 6
{11}
20 км 3/3 750 м
[Cu Sc Ac trans]
+29.9 +23.8 70 +41 +45 опасность
перегрева
1015.5 1016.0
12 23.05 ЮВ 5
{8}
20 км 10/10 600 м
[]
+28.7 +24.0 76 +40 +40 очень
душно
1014.1 1014.0
15 23.05 ЮВ 4
{6}
20 км 3/3 660 м
[Cu Sc Ci fib]
+27.3 +23.3 79 +37 +37 очень
душно
1015.1 1015.0
18 23.05 В 4
{7}
20 км н/о +27.4 +23.4 79 +37 +37 очень
душно
1016.6 1017.0 +30.3
21 23.05 С 1
{2}
20 км н/о +24.8 +22.5 87 +32 +32 очень
душно
1015.8 1016.0
00 24.05 ЮВ 7
{9}
7000 м 9/9 600 м
[]
+26.2 +22.1 78 +34 +34 очень
душно
1014.6 1015.0
03 24.05 ЮВ 6
{9}
20 км 3/3 660 м
[Cu med, cong]
+26.8 +22.0 75 +35 +35 очень
душно
1015.2 1015.0
06 24.05 ЮВ 7
{11}
20 км 4/4 700 м
[Cu med, cong]
+28.9 +23.1 71 +39 +40 очень
душно
1016.7 1017.0 +24.3
09 24.05 В 5
{9}
20 км 3/3 700 м
[Cu med, cong]
+29.1 +23.3 71 +39 +45 очень
душно
1015.0 1015.0
12 24.05 ЮВ 4
{6}
20 км 6/6 700 м
[Cu Sc]
+29.8 +23.0 67 +40 +42 очень
душно
1013.2 1013.0
15 24.05 ЮВ 3
{5}
20 км 5/5 660 м
[Cu med, cong]
+27.2 +23.0 78 +36 +36 очень
душно
1014.1 1014.0
18 24.05 ЮВ 3
{5}
20 км 8/8 600 м
[]
+26.1 +22.8 82 +35 +35 очень
душно
1015.3 1015.0 +30.6
21 24.05 Ю 3
{4}
20 км н/о +25.5 +22.4 83 +33 +33 очень
душно
1014.8 1015.0

 

Местоположение метеостанции Dzaoudzi (Коморские Острова): широта -12.80 долгота 45.28 высота над уровнем моря 7 м.

В архиве по умолчанию представлена погода в Dzaoudzi за последнюю неделю. Архивные данные за месяц целиком и за предыдущие месяцы, начиная с января 2011 года, Вы можете получить, выбрав интересующий диапазон дат из раскрывающегося списка и нажав кнопку "Ввод!".


*Определитесь, кто Вы:
робот инопланетянин человек

Внимание! Время в таблицах - всемирное. Для получения местного времени необходимо прибавить поправку, которая в Dzaoudzi равна 3 ч.

Смотрите также архив погоды в соседних городах и на ближайших метеорологических станциях:

Погода в Glorieuses Island (Реюньон) (254 км)
Погода в Moroni (Коморские Острова) (260 км)
Погода в Fascene (Мадагаскар) (334 км)
Погода в Mahajanga (Мадагаскар) (338 км)
Погода в Antsohihy (Мадагаскар) (372 км)
Погода в Antsiranana (Мадагаскар) (439 км)
Погода в Besalampy (Мадагаскар) (448 км)
Погода в Pemba (Мадагаскар) (515 км)
Погода в Juan De Nova Island (Реюньон) (543 км)
Погода в Sambava (Мадагаскар) (554 км)

Пояснения к столбцам:

Ветер - указаны скорость ветра в м/с - средняя за 10 мин, порывы в срок и между сроками (в фигурных скобках) и направление, откуда дует ветер: С - северный, СВ - северо-восточный, В - восточный, ЮВ - юго-восточный, Ю - южный, ЮЗ - юго-западный, З - западный, СЗ - северо-западный.
Видимость - горизонтальная дальность видимости в метрах или километрах. При видимости от 1 до 10 км при отсутствии осадков обычно наблюдается дымка, при ухудшении видимости до 1 км и менее - туман. В сухую погоду видимость может ухудшаться дымом, пылью или мглою.
Явления - указаны атмосферные явления, наблюдавшиеся в срок или в последний час перед сроком; фигурными скобками обозначены явления, наблюдавшиеся между сроками (за 1-3 часа до срока); квадратными скобками обозначены град или гололедные отложения с указанием их диаметра в мм.
Облачность - указаны через наклонную черту общая и нижняя облачность в баллах и высота нижней границы облаков в метрах; квадратными скобками обозначены формы облаков: Ci - перистые, Cs - перисто-слоистые, Cc - перисто-кучевые, Ac - высококучевые, As - высокослоистые, Sc - слоисто-кучевые, Ns - слоисто-дождевые, Cu - кучевые, Cb - кучево-дождевые. Подробнее классификацию облаков см. в Атласе облаков (PDF).
T - Температура воздуха - температура, измеренная на высоте 2 м над землей.
Td - Температура точки росы - температура, при понижении до которой содержащийся в воздухе водяной пар достигнет насыщения.
f - Относительная влажность воздуха - влажноcть воздуха, измеренная на высоте 2 м над землей.
Te - Эффективная температура - температура, которую ощущает одетый по сезону человек в тени. Характеристика душности погоды. При расчете учитывается влияние влажности воздуха и скорости ветра на теплоощущения человека.
Tes - Эффективная температура на солнце - температура, которую ощущает человек, с поправкой на солнечный нагрев. Характеристика знойности погоды. Зависит от высоты солнца над горизонтом, облачности и скорости ветра. Ночью, в пасмурную погоду, а также при ветре 12 м/с и более поправка равна нулю.
P - Атмосферное давление - приведенное к уровню моря атмосферное давление.
Po - Атмосферное давление - измеренное на уровне метеостанции атмосферное давление.
Tmin - Минимальная температура - минимум температуры воздуха на высоте 2 м над землей.
Tmax - Максимальная температура - максимум температуры воздуха на высоте 2 м над землей.
R - Количество осадков - Количество выпавших осадков за период времени, мм. При наведении курсора мыши на число - период времени, за который выпало указанное количество осадков.
R24 - Количество осадков - Количество выпавших осадков за 24 часа, мм.
S - Снежный покров - Высота снежного покрова, см. При наведении курсора мыши на число - состояние снежного покрова и степень покрытия местности в баллах.